Weather reports worldwide

Advertisment
Chillingham Barns, United Kingdom (99196): temperature & dewpoint: 20.03.2019 19:00:00 - 26.03.2019 19:00:00 (GMT)Chillingham Barns, United Kingdom (99196): precipitation: 20.03.2019 19:00:00 - 26.03.2019 19:00:00 (GMT)
Date & Time tt [°C] td [°C] rr [mm]
26.03.2019 19:00:00 8,7 4,7 0,0
26.03.2019 18:00:00 9,8 4,8 0,0
26.03.2019 17:00:00 10,3 4,8 0,0
26.03.2019 16:00:00 10,3 4,3 0,0
26.03.2019 15:00:00 10,6 3,5 0,0
26.03.2019 14:00:00 10,1 3,7 0,0
26.03.2019 13:00:00 10,0 3,6 0,0
26.03.2019 12:00:00 10,6 3,6 0,0
26.03.2019 11:00:00 10,4 2,8 0,0
26.03.2019 10:00:00 8,9 2,4 0,0
26.03.2019 09:00:00 8,4 2,5 0,0
26.03.2019 08:00:00 7,6 2,1 0,0
26.03.2019 07:00:00 7,2 2,0 0,0
26.03.2019 06:00:00 7,0 2,4 0,0
26.03.2019 05:00:00 7,1 2,7 0,0
26.03.2019 04:00:00 6,0 2,8 0,0
26.03.2019 03:00:00 5,5 2,4 0,0
26.03.2019 02:00:00 6,3 2,4 0,0
26.03.2019 01:00:00 5,1 1,6 0,0
26.03.2019 00:00:00 5,2 1,2 0,0
25.03.2019 23:00:00 6,9 2,1 0,0
25.03.2019 22:00:00 6,6 2,0 0,0
25.03.2019 21:00:00 6,1 1,6 0,0
25.03.2019 20:00:00 5,9 1,1 0,0
25.03.2019 19:00:00 6,6 0,5 0,0
25.03.2019 18:00:00 8,9 1,3 0,0
25.03.2019 17:00:00 10,4 0,1 0,0
25.03.2019 16:00:00 10,7 0,2 0,0
25.03.2019 15:00:00 11,5 -0,4 0,0
25.03.2019 14:00:00 11,6 -0,4 0,0
25.03.2019 13:00:00 11,3 0,3 0,0
25.03.2019 12:00:00 10,5 0,4 0,0
25.03.2019 11:00:00 9,3 0,4 0,0
25.03.2019 10:00:00 8,5 1,0 0,0
25.03.2019 09:00:00 6,9 0,4 0,0
25.03.2019 08:00:00 5,4 0,0 0,0
25.03.2019 07:00:00 4,2 -0,2 0,0
25.03.2019 06:00:00 4,3 -0,3 0,0
25.03.2019 05:00:00 4,9 -0,2 0,0
25.03.2019 04:00:00 5,3 -0,3 0,0
25.03.2019 03:00:00 5,2 -0,7 0,0
25.03.2019 02:00:00 4,6 -0,9 0,0
25.03.2019 01:00:00 5,4 -1,4 0,0
25.03.2019 00:00:00 5,6 -1,5 0,0
24.03.2019 23:00:00 5,5 -2,1 0,0
24.03.2019 22:00:00 5,6 -1,2 0,0
24.03.2019 21:00:00 6,1 -0,1 0,0
24.03.2019 20:00:00 6,3 -0,4 0,0
24.03.2019 19:00:00 6,9 -0,2 0,0
24.03.2019 18:00:00 8,0 0,2 0,0
24.03.2019 17:00:00 8,8 1,5 0,0
24.03.2019 16:00:00 9,5 3,2 0,0
24.03.2019 15:00:00 9,6 4,4 0,0
24.03.2019 14:00:00 9,8 3,9 0,0
24.03.2019 13:00:00 9,6 2,9 0,0
24.03.2019 12:00:00 9,7 2,7 0,0
24.03.2019 11:00:00 9,2 2,5 0,0
24.03.2019 10:00:00 8,1 1,6 0,0
24.03.2019 09:00:00 6,8 1,1 0,0
24.03.2019 08:00:00 5,6 1,3 0,0
24.03.2019 07:00:00 4,1 0,3 0,0
24.03.2019 06:00:00 4,1 -0,2 0,0
24.03.2019 05:00:00 3,2 1,1 0,0
24.03.2019 04:00:00 3,5 1,4 0,0
24.03.2019 03:00:00 4,5 2,0 0,0
24.03.2019 02:00:00 4,4 1,6 0,0
24.03.2019 01:00:00 4,4 0,5 0,0
24.03.2019 00:00:00 4,1 0,0 0,0
23.03.2019 23:00:00 4,8 0,0 0,0
23.03.2019 22:00:00 5,4 0,4 0,0
23.03.2019 21:00:00 5,5 0,9 0,0
23.03.2019 20:00:00 5,7 1,2 0,0
23.03.2019 19:00:00 5,4 1,1 0,0
23.03.2019 18:00:00 7,3 0,7 0,0
23.03.2019 17:00:00 8,4 0,9 0,0
23.03.2019 16:00:00 9,2 0,1 0,0
23.03.2019 15:00:00 9,8 0,0 0,0
23.03.2019 14:00:00 10,1 0,1 0,0
23.03.2019 13:00:00 9,3 0,3 0,0
23.03.2019 12:00:00 8,7 -0,3 0,0
23.03.2019 11:00:00 8,3 1,3 0,0
23.03.2019 10:00:00 7,5 1,2 0,0
23.03.2019 09:00:00 6,0 1,2 0,0
23.03.2019 08:00:00 3,9 0,6 0,0
23.03.2019 07:00:00 3,2 -0,4 0,0
23.03.2019 06:00:00 3,0 -0,4 0,0
23.03.2019 05:00:00 3,8 -0,2 0,0
23.03.2019 04:00:00 4,3 0,6 0,0
23.03.2019 03:00:00 4,7 0,3 0,0
23.03.2019 02:00:00 5,3 0,0 0,0
23.03.2019 01:00:00 5,1 0,6 0,0
23.03.2019 00:00:00 4,9 0,7 0,0
22.03.2019 23:00:00 6,4 1,1 0,0
22.03.2019 22:00:00 6,5 1,2 0,0
22.03.2019 21:00:00 7,9 3,7 0,0
22.03.2019 20:00:00 8,2 4,0 0,0
22.03.2019 19:00:00 8,8 5,6 0,0
22.03.2019 18:00:00 9,0 7,0 0,2
22.03.2019 17:00:00 10,4 6,8 0,0
22.03.2019 16:00:00 10,3 7,8 0,0
22.03.2019 15:00:00 10,2 7,6 0,0
22.03.2019 14:00:00 10,9 6,5 0,0
22.03.2019 13:00:00 11,0 5,9 0,0
22.03.2019 12:00:00 11,3 5,6 0,0
22.03.2019 11:00:00 11,4 6,2 0,0
22.03.2019 10:00:00 11,1 5,9 0,0
22.03.2019 09:00:00 11,1 5,9 0,0
22.03.2019 08:00:00 10,5 7,5 0,0
22.03.2019 07:00:00 10,4 7,4 0,0
22.03.2019 06:00:00 9,9 7,2 0,0
22.03.2019 05:00:00 10,2 7,1 0,0
22.03.2019 04:00:00 9,8 6,9 0,0
22.03.2019 03:00:00 10,1 7,2 0,0
22.03.2019 02:00:00 9,1 6,7 0,0
22.03.2019 01:00:00 8,4 6,4 0,0
22.03.2019 00:00:00 8,6 7,2 0,0
21.03.2019 23:00:00 8,9 7,5 0,0
21.03.2019 22:00:00 9,6 7,9 0,0
21.03.2019 21:00:00 10,2 8,3 0,0
21.03.2019 20:00:00 10,5 8,4 0,0
21.03.2019 19:00:00 11,2 8,4 0,0
21.03.2019 18:00:00 12,0 9,0 0,0
21.03.2019 17:00:00 12,8 9,0 0,0
21.03.2019 16:00:00 13,2 9,0 0,0
21.03.2019 15:00:00 13,4 9,0 0,0
21.03.2019 14:00:00 13,3 9,2 0,0
21.03.2019 13:00:00 13,6 8,9 0,0
21.03.2019 12:00:00 14,2 9,7 0,0
21.03.2019 11:00:00 13,9 9,3 0,0
21.03.2019 10:00:00 13,6 8,8 0,0
21.03.2019 09:00:00 12,4 8,2 0,0
21.03.2019 08:00:00 12,2 8,1 0,0
21.03.2019 07:00:00 11,0 7,4 0,0
21.03.2019 06:00:00 10,3 7,5 0,0
21.03.2019 05:00:00 10,6 7,5 0,0
21.03.2019 04:00:00 10,6 7,4 0,0
21.03.2019 03:00:00 10,6 7,6 0,0
21.03.2019 02:00:00 11,2 8,1 0,0
21.03.2019 01:00:00 11,0 8,4 0,0
21.03.2019 00:00:00 11,1 8,3 0,0
20.03.2019 23:00:00 11,5 8,7 0,0
20.03.2019 22:00:00 11,1 8,6 0,0
20.03.2019 21:00:00 11,6 8,8 0,0
20.03.2019 20:00:00 11,5 8,6 0,0
20.03.2019 19:00:00 11,4 8,8 0,0

tt = temperature
td = dewpoint
rr = precipitation

Next stations